TimeCST,TemperatureF,Dew PointF,Humidity,Sea Level PressureIn,VisibilityMPH,Wind Direction,Wind SpeedMPH,Gust SpeedMPH,PrecipitationIn,Events,Conditions,WindDirDegrees,DateUTC
12:15 AM,30.6,19.9,65,30.20,10.0,NNW,11.5,-,N/A,,Overcast,340,2013-02-16 06:15:00
12:35 AM,30.0,19.6,65,30.20,10.0,NNW,10.4,-,N/A,,Mostly Cloudy,340,2013-02-16 06:35:00
12:55 AM,29.7,19.9,67,30.20,10.0,NNW,10.4,-,N/A,,Clear,340,2013-02-16 06:55:00
1:15 AM,29.1,19.9,69,30.20,10.0,NNW,8.1,-,N/A,,Clear,340,2013-02-16 07:15:00
1:35 AM,28.4,20.5,72,30.20,10.0,NNW,11.5,-,N/A,,Clear,330,2013-02-16 07:35:00
1:55 AM,28.2,18.0,65,30.20,10.0,NNW,12.7,-,N/A,,Clear,340,2013-02-16 07:55:00
2:15 AM,27.5,18.0,67,30.20,10.0,NW,12.7,16.1,N/A,,Clear,320,2013-02-16 08:15:00
2:35 AM,27.1,17.8,68,30.20,10.0,NNW,10.4,-,N/A,,Clear,330,2013-02-16 08:35:00
2:55 AM,26.6,17.6,69,30.20,10.0,NNW,11.5,-,N/A,,Clear,330,2013-02-16 08:55:00
3:15 AM,26.4,16.2,65,30.20,10.0,NNW,11.5,-,N/A,,Clear,330,2013-02-16 09:15:00
3:35 AM,26.2,15.8,65,30.20,10.0,NNW,10.4,18.4,N/A,,Clear,330,2013-02-16 09:35:00
3:55 AM,25.7,16.2,67,30.20,10.0,NW,9.2,-,N/A,,Clear,320,2013-02-16 09:55:00
4:15 AM,25.7,15.8,66,30.21,10.0,NW,9.2,-,N/A,,Clear,320,2013-02-16 10:15:00
4:35 AM,25.2,16.5,70,30.21,10.0,NNW,10.4,-,N/A,,Clear,330,2013-02-16 10:35:00
4:55 AM,25.3,15.4,66,30.21,10.0,NW,10.4,-,N/A,,Scattered Clouds,320,2013-02-16 10:55:00
5:15 AM,24.8,16.5,71,30.21,10.0,NW,8.1,-,N/A,,Scattered Clouds,310,2013-02-16 11:15:00
5:35 AM,24.6,16.7,72,30.21,10.0,NW,9.2,-,N/A,,Clear,320,2013-02-16 11:35:00
5:55 AM,24.8,16.3,70,30.21,10.0,NW,9.2,-,N/A,,Scattered Clouds,320,2013-02-16 11:55:00
6:15 AM,24.8,15.8,69,30.21,10.0,WNW,10.4,-,N/A,,Mostly Cloudy,300,2013-02-16 12:15:00
6:35 AM,24.6,15.8,69,30.22,10.0,NW,9.2,-,N/A,,Mostly Cloudy,310,2013-02-16 12:35:00
6:55 AM,24.6,15.8,69,30.22,10.0,NNW,8.1,-,N/A,,Mostly Cloudy,330,2013-02-16 12:55:00
7:15 AM,24.6,15.8,69,30.23,10.0,NW,9.2,-,N/A,,Mostly Cloudy,310,2013-02-16 13:15:00
7:35 AM,24.1,15.4,70,30.23,10.0,NW,9.2,-,N/A,,Scattered Clouds,320,2013-02-16 13:35:00
7:55 AM,24.8,16.2,70,30.23,10.0,NW,10.4,18.4,N/A,,Scattered Clouds,320,2013-02-16 13:55:00
8:15 AM,25.2,16.2,69,30.23,10.0,NNW,10.4,-,N/A,,Scattered Clouds,330,2013-02-16 14:15:00
8:35 AM,25.3,16.3,69,30.24,10.0,WNW,10.4,-,N/A,,Mostly Cloudy,300,2013-02-16 14:35:00
8:55 AM,25.7,16.3,68,30.23,10.0,NW,8.1,-,N/A,,Scattered Clouds,310,2013-02-16 14:55:00
9:15 AM,26.6,16.3,65,30.23,10.0,NW,13.8,-,N/A,,Scattered Clouds,320,2013-02-16 15:15:00
9:35 AM,26.4,15.8,64,30.24,10.0,NW,11.5,19.6,N/A,,Scattered Clouds,310,2013-02-16 15:35:00
12:15 PM,30.0,16.7,58,30.22,10.0,WNW,11.5,18.4,N/A,,Clear,290,2013-02-16 18:15:00
12:35 PM,30.6,18.3,60,30.21,10.0,West,16.1,-,N/A,,Clear,280,2013-02-16 18:35:00
12:55 PM,31.1,18.3,59,30.21,10.0,WNW,11.5,20.7,N/A,,Clear,300,2013-02-16 18:55:00
1:15 PM,31.1,17.2,57,30.20,10.0,West,12.7,17.3,N/A,,Unknown,280,2013-02-16 19:15:00
1:35 PM,31.8,17.2,55,30.20,10.0,NW,13.8,-,N/A,,Unknown,310,2013-02-16 19:35:00
1:55 PM,32.0,17.1,54,30.19,10.0,WNW,15.0,-,N/A,,Clear,290,2013-02-16 19:55:00
2:15 PM,32.0,16.9,54,30.19,10.0,West,8.1,20.7,N/A,,Clear,280,2013-02-16 20:15:00
2:35 PM,32.4,15.6,50,30.18,10.0,WNW,13.8,19.6,N/A,,Clear,290,2013-02-16 20:35:00
2:55 PM,32.9,16.0,50,30.18,10.0,WNW,9.2,16.1,N/A,,Clear,290,2013-02-16 20:55:00
3:15 PM,33.3,14.2,46,30.18,10.0,NW,10.4,-,N/A,,Clear,310,2013-02-16 21:15:00
3:35 PM,33.8,14.0,44,30.17,10.0,NW,9.2,-,N/A,,Clear,310,2013-02-16 21:35:00
3:55 PM,33.8,14.4,45,30.17,10.0,West,8.1,-,N/A,,Clear,270,2013-02-16 21:55:00
4:15 PM,33.6,14.2,45,30.17,10.0,West,9.2,-,N/A,,Clear,280,2013-02-16 22:15:00
4:35 PM,33.6,13.8,44,30.17,10.0,WNW,12.7,17.3,N/A,,Clear,290,2013-02-16 22:35:00
4:55 PM,33.3,13.3,44,30.17,10.0,West,9.2,-,N/A,,Clear,280,2013-02-16 22:55:00
5:15 PM,32.9,12.6,43,30.17,10.0,West,11.5,-,N/A,,Clear,270,2013-02-16 23:15:00
5:35 PM,32.4,14.0,47,30.17,10.0,West,6.9,-,N/A,,Clear,280,2013-02-16 23:35:00
5:55 PM,32.0,14.7,49,30.17,10.0,West,6.9,-,N/A,,Clear,280,2013-02-16 23:55:00
6:15 PM,30.6,17.6,59,30.18,10.0,West,5.8,-,N/A,,Clear,270,2013-02-17 00:15:00
6:35 PM,30.4,16.5,56,30.18,10.0,West,4.6,-,N/A,,Clear,270,2013-02-17 00:35:00
6:55 PM,29.7,17.4,60,30.18,10.0,West,3.5,-,N/A,,Clear,260,2013-02-17 00:55:00
7:15 PM,29.7,16.0,57,30.17,10.0,West,4.6,-,N/A,,Clear,280,2013-02-17 01:15:00
7:35 PM,30.0,16.2,56,30.17,10.0,West,4.6,-,N/A,,Clear,270,2013-02-17 01:35:00
7:55 PM,28.9,16.5,60,30.18,10.0,WSW,3.5,-,N/A,,Clear,250,2013-02-17 01:55:00
8:15 PM,28.0,18.7,68,30.18,10.0,WSW,3.5,-,N/A,,Clear,250,2013-02-17 02:15:00
8:35 PM,26.8,19.9,75,30.19,10.0,Calm,Calm,-,N/A,,Clear,0,2013-02-17 02:35:00
8:55 PM,27.0,18.9,72,30.19,10.0,WSW,3.5,-,N/A,,Clear,250,2013-02-17 02:55:00
9:15 PM,27.0,18.9,72,30.20,10.0,West,4.6,-,N/A,,Clear,260,2013-02-17 03:15:00
9:35 PM,27.3,18.0,68,30.20,10.0,West,3.5,-,N/A,,Clear,260,2013-02-17 03:35:00
9:55 PM,27.0,19.4,73,30.20,10.0,Calm,Calm,-,N/A,,Clear,0,2013-02-17 03:55:00
10:15 PM,26.6,19.8,75,30.20,10.0,Calm,Calm,-,N/A,,Clear,0,2013-02-17 04:15:00
10:35 PM,25.7,21.0,82,30.19,10.0,Calm,Calm,-,N/A,,Clear,0,2013-02-17 04:35:00
10:55 PM,26.1,20.3,79,30.18,10.0,Calm,Calm,-,N/A,,Clear,0,2013-02-17 04:55:00
11:15 PM,25.7,20.3,80,30.18,10.0,Calm,Calm,-,N/A,,Clear,0,2013-02-17 05:15:00
11:35 PM,25.5,20.1,80,30.18,10.0,Calm,Calm,-,N/A,,Clear,0,2013-02-17 05:35:00
11:55 PM,24.8,20.1,82,30.17,10.0,Calm,Calm,-,N/A,,Clear,0,2013-02-17 05:55:00